Location: Asheville, NC
(35.6000°N, 82.5500°W)
Time: 14:03:21
(UTC-04:00)

UWE-3 - Pass Details

Date: 09 March 2018
Orbit: 585 x 684 km, 97.6° (Epoch: 18 June)

Event Time Altitude Azimuth Distance (km) Brightness Sun altitude
Rises 20:34:08 0° 215° (SW) 2,979 ? -25.3°
Reaches altitude 10° 20:37:54 10° 247° (WSW) 2,050 ? -26.1°
Maximum altitude 20:39:28 12° 268° (W) 1,930 ? -26.4°
Drops below altitude 10° 20:41:03 10° 289° (WNW) 2,033 ? -26.7°
Sets 20:44:45 0° 322° (NW) 2,921 ? -27.4°
